User: anonymous   Login
Location: Unspecified
(0.0000°N, 0.0000°E)
Time: 01:49:19
(UTC+01:00)
Language:

Cosmos 1933 - Orbit

View from above orbital plane
View from above orbital plane
View from above satellite
View from above satellite

Ground track
Ground track

The orbit data is extracted from the following two-line orbital elements,

1 18958U 88020A   14355.16815940  .00004999  00000-0  38499-3 0  5073
2 18958 082.5323 260.1238 0013576 127.0392 233.2077 15.01392028455025
Epoch (UTC): 21 December 2014 04:02:08
Eccentricity: 0.0013576
inclination: 82.5323°
perigee height: 553 km
apogee height: 572 km
right ascension of ascending node: 260.1238°
argument of perigee: 127.0392°
revolutions per day: 15.01392028
mean anomaly at epoch: 233.2077°
orbit number at epoch: 45502

The dashed part of the orbit path shows where the satellite is in the earth's shadow,  

DLR